Погода в Пиньчуве

Польша     50°31′15″N   20°31′54″E
темп.,
°C
ветер,
м/с
пор.,
м/с
влажн.,
%
обл.,
%
осадки,
мм/ч
давл.,
гПа
погр.,
м
12 мая, ср
ср1223:00+15вюв613835 0.0 1009262
02:00+11в48915 0.0 1009149
05:00+11в34961 0.0 100878
08:00+15вюв57848 0.0 1008318
11:00+21вюв677229 0.0 1007944
14:00+22в896416 0.1 10061360
17:00+21вюв811650 0.0 10051091
20:00+15вюв915820 0.0 1005632
13 мая, чт
чт1323:00+11в715810 0.0 1005492
02:00+9в512790 0.0 1005452
05:00+7в38920 0.0 1003243
08:00+10в458378 0.0 1002507
11:00+13вюв2278100 0.0 1001754
14:00+15юз2279100 0.1 1000779
17:00+12з51091100 0.6 1001596
20:00+11зюз41091100 0.7 1001625
14 мая, пт
пт1423:00+11юз51195100 1.1 1001531
02:00+10зюз71294100 3.2 1002595
05:00+9зюз61295100 2.0 1003687
08:00+9з51095100 4.1 1005680
11:00+9з51090100 0.3 1007710
14:00+12зсз487847 0.4 10081088
17:00+14зсз4669100 0.4 10071082
20:00+11с1184100 0.5 100810
15 мая, сб
сб1523:00+9ююв1188100 0.0 100910
02:00+8ююз118943 0.0 101010
05:00+7ююз22905 0.0 101010
08:00+13ююз2278100 0.0 1010254
11:00+17ююв126461 0.1 1009969
14:00+17ююз116698 1.9 1008991
17:00+14ссв3487100 3.8 1008155
20:00+12св489515 4.9 1008167
16 мая, вс
вс1623:00+10всв239593 0.9 100854
02:00+9всв229599 0.9 100821
05:00+8св1197100 0.0 100811
08:00+13ссв2390100 0.0 1008386
11:00+15ссв2379100 0.1 1008889
14:00+15вюв1287100 2.1 1007255
17:00+14вюв3488100 3.6 1006366
20:00+12вюв1198100 6.8 100728